User: anonymous   Login
Location: Unspecified
(0.0000°N, 0.0000°E)
Time: 00:07:44
(UTC+00:00)
Language:

GOMX 1 - Orbit

View from above orbital plane
View from above orbital plane
View from above satellite
View from above satellite

Ground track
Ground track

The orbit data is extracted from the following two-line orbital elements,

1 39423U 13066H   23334.57605849  .00002857  00000-0  56058-3 0  9995
2 39423  97.6796 180.0143 0170260 275.7500  82.4309 14.54609370531628
Epoch (UTC): 30 November 2023 13:49:31
Eccentricity: 0.0170260
inclination: 97.6796°
perigee height: 590 km
apogee height: 831 km
right ascension of ascending node: 180.0143°
argument of perigee: 275.7500°
revolutions per day: 14.54609370
mean anomaly at epoch: 82.4309°
orbit number at epoch: 53162

The dashed part of the orbit path shows where the satellite is in the earth's shadow,  

DLR